Theta_e
346 355 357 354 354 355 354 354 354 356 355 355 355 356 358 359 359 358 358 357 360 358 357 357 356 356 356 356 355 353 351 352 352 352 350 349 348 346 346 345 343 341 345
350 353 357 353 354 354 355 354 353 357 357 357 358 358 358 358 358 358 358 357 358 356 355 354 354 353 353 353 353 353 354 353 349 349 351 350 350 349 349 347 343 344 345
351 351 349 354 354 354 355 355 355 357 358 359 359 358 358 357 357 357 357 356 355 354 353 352 352 352 352 351 350 350 350 350 351 350 346 347 349 349 349 348 348 346 345
351 349 349 355 354 354 354 355 356 357 357 358 358 358 357 356 356 355 355 354 352 352 351 350 350 350 351 350 350 350 350 353 353 352 355 350 349 349 348 349 348 348 347
349 346 350 354 355 353 354 354 355 356 357 357 357 357 356 355 355 354 353 352 352 351 351 350 350 350 351 351 351 351 351 352 353 350 352 353 352 349 348 349 349 348 346
347 346 350 352 354 353 353 354 354 355 356 356 357 356 355 354 353 352 352 352 352 352 352 351 351 351 351 351 353 353 352 351 352 349 351 349 352 348 349 349 346 347 347
347 347 347 350 352 353 351 353 353 354 355 355 355 355 354 353 353 353 353 353 353 353 352 352 353 353 352 352 353 354 353 351 349 349 350 350 349 351 351 351 349 347 346
347 347 347 351 351 353 350 351 352 353 354 354 354 354 353 353 353 353 353 353 354 354 354 354 354 356 355 355 355 355 354 351 346 349 350 351 347 351 353 353 352 351 348
348 346 348 346 350 351 352 352 353 351 352 352 353 353 353 353 353 353 354 354 354 355 356 356 357 357 357 357 356 356 355 352 346 348 350 350 348 348 354 354 354 353 352
342 343 345 347 347 348 349 353 353 352 351 352 352 353 353 353 352 350 350 352 352 354 355 357 358 359 359 358 358 358 356 354 350 349 352 351 347 352 353 356 356 355 354
336 340 343 344 346 347 347 348 352 352 352 352 353 351 352 352 350 348 351 349 350 350 352 353 353 355 355 357 353 351 351 352 353 352 353 349 346 351 351 356 359 356 356
331 333 339 343 346 347 347 349 352 351 353 355 353 352 351 349 349 348 347 347 347 347 347 347 346 348 350 347 346 350 348 350 353 353 353 351 350 352 354 356 359 357 356
327 329 331 334 339 343 344 348 349 349 350 351 350 349 349 348 351 351 351 350 350 346 348 348 349 348 348 348 348 349 350 349 349 349 351 350 353 354 356 357 357 356 356
325 326 329 332 338 343 347 346 345 347 347 345 343 345 351 350 350 348 346 345 344 342 344 345 344 345 346 347 349 347 348 348 350 352 353 351 354 355 357 360 358 358 358
324 325 327 333 338 341 340 335 335 335 335 335 336 338 345 346 342 341 338 338 337 337 337 339 339 340 342 344 343 343 343 346 349 350 352 355 350 353 354 358 361 359 358
322 323 326 329 333 333 331 331 329 329 329 329 330 330 332 333 332 332 332 331 332 332 332 333 333 334 338 338 338 338 340 343 348 348 348 352 352 349 352 355 360 360 359
320 321 324 326 329 329 328 327 326 326 326 326 326 326 326 327 327 327 327 326 326 326 326 327 329 330 333 332 333 334 336 340 345 344 347 350 353 352 354 355 359 360 358
320 320 321 322 324 324 324 323 323 324 324 322 321 321 322 322 322 322 322 321 321 322 320 320 323 322 327 324 324 326 330 336 339 344 350 352 352 353 355 356 357 357 355
319 319 320 322 321 321 321 321 321 321 319 318 318 318 318 317 318 318 316 316 317 316 315 314 317 317 319 316 316 320 327 331 340 342 341 339 336 340 346 348 349 349 347
317 319 321 320 321 320 322 319 318 316 315 315 314 314 315 314 314 314 313 313 313 311 310 311 314 314 312 312 314 319 331 334 330 338 333 330 326 325 323 322 321 322 330
316 318 320 320 321 320 317 317 316 311 308 307 308 309 309 309 309 312 312 310 310 308 308 309 310 310 309 310 313 319 327 327 322 326 325 322 318 317 316 316 316 319 321
314 316 317 318 320 319 316 313 311 308 306 305 306 307 309 309 310 310 309 307 308 306 307 306 307 306 306 307 306 315 312 320 319 320 321 317 314 311 313 314 315 314 315
312 313 314 316 317 317 316 314 312 311 309 306 306 306 307 307 308 308 307 307 306 305 303 304 305 305 303 305 308 306 307 305 305 315 315 313 310 308 310 311 311 312 315
311 312 313 314 315 315 316 314 314 310 305 304 305 304 306 307 306 307 307 306 306 304 303 302 304 303 304 301 304 305 308 306 302 302 308 308 307 307 309 308 309 312 314
310 310 311 311 311 312 312 311 308 307 306 306 305 306 306 306 306 305 306 306 305 304 304 303 302 302 302 301 300 301 303 304 302 301 298 301 303 305 306 307 308 310 311
309 310 311 310 310 311 310 310 309 307 306 305 305 304 304 304 304 305 305 305 305 305 304 302 302 302 301 301 301 300 299 299 298 298 296 298 298 302 304 306 307 308 308
Wind_Speed
10 12 14 12 12 13 15 14 14 14 14 15 15 14 13 12 12 13 13 11 11 12 12 12 11 10 10 10 9 9 9 8 7 8 8 7 8 8 8 7 4 8 7
14 12 14 12 12 13 14 14 15 13 13 14 13 13 12 11 12 11 11 10 11 11 10 10 10 9 8 8 7 7 6 5 4 4 6 7 7 7 7 7 4 9 7
14 12 12 12 12 13 13 13 13 12 11 11 12 12 11 11 10 10 9 9 9 9 9 9 9 8 7 7 7 5 4 3 1 1 1 3 4 5 6 6 7 7 7
14 11 11 11 11 11 12 11 12 12 11 11 11 11 11 10 8 8 8 7 8 8 8 8 7 6 7 7 6 6 6 5 2 1 2 1 2 6 4 5 5 6 6
13 11 11 12 11 11 11 9 9 10 10 10 9 9 9 8 7 6 6 6 7 7 7 7 6 6 7 8 8 8 8 8 3 4 3 4 3 5 5 4 6 5 4
13 10 12 12 11 12 10 8 8 8 7 7 7 6 5 5 5 5 5 7 7 7 7 7 7 7 8 8 9 8 7 8 5 5 3 2 6 3 5 6 3 3 4
13 9 11 12 11 10 11 9 7 6 5 5 4 4 2 2 3 5 6 7 7 7 7 7 8 6 6 8 8 9 8 6 7 6 5 2 5 6 7 7 6 6 5
12 7 8 9 9 8 10 9 5 3 3 3 2 1 1 3 4 6 7 8 8 8 8 8 8 8 7 8 8 9 8 8 7 5 5 2 2 8 10 9 8 8 8
9 8 5 6 7 7 7 7 5 2 1 0 1 3 4 5 7 8 10 10 12 11 10 10 9 10 9 9 8 9 10 9 8 4 5 3 5 5 10 10 10 10 9
7 5 4 3 5 5 5 6 4 4 2 1 3 4 6 6 7 7 8 9 12 12 11 10 10 9 10 10 8 8 8 9 7 6 5 3 6 8 9 12 13 13 13
6 5 4 4 4 3 3 2 5 4 3 3 2 5 4 4 5 6 7 11 10 10 9 8 7 7 8 5 6 7 7 3 4 3 4 3 7 10 11 13 14 14 13
6 6 4 3 4 5 4 4 4 4 2 2 3 3 3 4 4 5 4 6 8 9 8 8 9 4 3 5 4 0 4 4 2 3 3 4 9 10 12 14 13 12 12
6 6 6 5 3 5 5 2 2 2 2 1 2 3 2 2 1 2 2 3 4 7 5 5 5 5 7 5 5 6 6 5 4 4 3 5 9 11 12 14 12 11 12
8 7 7 7 4 4 4 3 3 2 2 2 3 3 1 2 3 3 3 4 4 5 7 6 5 6 6 6 6 7 7 6 5 4 4 2 8 12 15 15 14 13 14
7 7 8 7 6 5 6 5 6 5 4 4 4 6 3 3 4 3 4 4 5 6 7 7 7 7 7 6 6 6 6 6 7 5 5 4 4 10 14 16 15 14 15
5 7 7 7 7 9 8 8 7 6 6 6 7 8 9 5 5 4 4 5 5 6 6 6 7 7 7 7 7 7 7 6 6 6 6 7 4 5 10 12 15 16 14
5 5 6 7 7 9 10 8 7 7 7 7 7 10 10 8 8 6 5 5 6 6 7 6 7 6 6 7 8 7 6 7 6 7 7 6 5 4 5 7 12 14 12
6 7 7 6 8 9 9 8 7 7 8 7 7 7 10 10 9 6 5 6 6 5 6 6 7 7 7 7 7 7 7 6 7 7 5 6 5 6 5 7 9 9 2
6 6 7 8 9 10 10 9 9 10 8 7 7 7 9 10 9 6 6 6 6 5 6 6 5 7 7 8 9 7 6 5 5 6 10 12 13 12 10 15 16 12 14
6 7 7 7 9 9 8 8 8 8 8 7 7 7 9 8 9 7 6 7 6 6 7 7 6 6 6 9 8 5 4 6 5 6 8 9 11 10 11 11 10 11 19
6 6 6 8 8 6 5 5 6 7 7 7 7 10 9 9 10 8 6 6 7 8 9 9 6 7 7 11 5 2 5 4 7 6 7 8 11 11 11 9 7 7 9
7 7 7 7 7 4 4 5 4 5 7 7 7 8 10 11 9 8 7 8 9 8 11 12 12 6 6 10 6 3 3 2 4 7 6 7 11 10 11 12 10 10 8
9 8 8 9 9 7 9 8 8 8 6 6 6 6 8 9 10 9 10 9 10 9 9 11 10 11 7 7 13 6 2 4 7 4 7 8 11 9 9 11 12 13 12
9 9 9 9 9 8 8 7 7 6 7 7 7 7 7 8 10 10 10 11 10 8 10 10 9 10 9 8 4 8 8 6 4 5 4 7 11 10 10 10 10 9 11
11 10 10 11 11 10 9 9 7 9 8 7 7 9 9 8 10 10 10 10 9 7 10 11 11 11 8 8 7 6 4 3 5 2 5 9 9 9 11 8 9 8 9
11 11 10 11 11 10 10 10 11 11 8 7 6 6 6 6 6 9 10 9 8 7 9 8 9 11 9 7 6 6 6 4 6 4 5 10 10 8 10 8 7 7 9
Wind_Direction
165 144 129 139 132 129 117 118 117 119 119 117 115 112 107 104 102 98 95 90 84 83 79 77 76 74 74 71 68 66 64 63 72 84 98 100 101 100 96 87 123 94 94
150 144 136 138 135 128 124 124 125 124 124 122 118 114 110 107 104 100 96 87 82 81 77 70 64 60 60 62 62 58 60 69 69 81 91 114 108 110 103 105 85 92 100
150 142 143 141 137 130 130 127 127 127 125 122 121 118 114 111 108 104 96 89 85 77 72 65 55 49 41 38 41 38 34 30 29 18 77 33 97 119 120 111 108 107 101
143 137 146 141 132 133 126 133 131 132 129 128 125 124 123 118 115 107 99 85 79 71 63 57 44 32 21 11 8 13 4 0 325 263 250 255 121 132 128 139 124 123 119
137 143 146 138 133 136 131 135 134 135 134 130 126 127 125 121 111 94 81 69 57 56 40 39 30 9 2 348 344 351 351 352 13 257 345 283 255 129 161 155 163 146 157
137 146 143 144 146 142 144 139 141 144 138 132 131 126 116 104 89 63 44 35 27 24 19 7 359 354 344 335 329 335 340 344 298 0 328 314 254 96 189 187 175 146 149
141 145 144 151 149 151 151 147 152 153 143 137 136 121 101 65 38 27 13 4 6 1 350 349 336 337 329 317 317 317 316 319 299 320 336 289 238 188 214 209 203 187 182
136 132 144 149 153 155 156 157 157 154 136 139 129 97 27 350 357 348 347 342 343 338 326 326 319 316 311 301 303 300 298 300 284 311 304 296 73 212 219 212 213 213 201
132 127 125 152 160 159 164 159 158 165 189 100 15 338 341 339 341 340 343 338 333 326 322 321 317 310 303 295 295 291 293 295 293 305 291 258 172 222 228 220 216 223 224
108 108 113 106 138 170 174 160 166 191 229 288 315 327 336 324 356 359 328 1 333 323 318 314 312 305 303 299 294 293 290 278 282 301 273 278 212 213 222 229 223 218 214
102 102 118 140 133 138 138 186 196 207 230 279 288 14 313 334 342 335 7 354 16 15 18 17 9 350 324 295 330 324 296 314 294 291 262 178 240 230 227 234 230 219 219
114 94 97 120 157 172 189 186 203 218 236 289 291 307 303 331 346 336 3 28 38 26 46 42 33 29 350 7 8 312 25 347 315 292 287 230 229 229 231 234 227 217 215
106 96 78 76 80 197 183 174 209 209 202 208 333 315 289 303 336 17 10 13 5 21 13 6 23 26 18 11 17 8 7 2 350 326 348 241 240 240 232 233 234 221 217
110 97 95 79 88 103 129 92 79 150 141 110 56 9 53 106 81 50 32 20 8 4 358 2 358 360 2 1 11 1 357 349 346 338 338 221 249 246 242 233 233 223 218
109 97 88 97 97 107 106 96 85 80 77 70 56 42 40 69 66 57 44 32 18 1 3 0 356 349 345 348 351 349 350 339 335 330 315 336 282 251 249 240 235 222 217
107 86 85 94 106 107 97 97 98 90 87 72 59 48 51 53 53 52 48 36 27 10 1 353 353 342 337 342 340 339 330 321 315 315 314 308 322 288 263 241 233 224 214
79 78 81 90 89 98 102 97 87 88 86 73 69 54 56 46 52 46 41 31 19 10 358 347 345 340 334 335 330 327 319 317 317 319 302 298 306 259 309 252 240 235 214
88 72 73 76 92 85 85 84 84 75 73 69 62 60 53 52 43 44 42 31 11 8 3 355 350 339 341 338 329 319 316 312 332 315 334 343 343 330 342 347 268 237 228
106 96 85 86 93 98 90 87 80 74 66 60 53 45 48 49 43 41 39 28 10 18 18 1 352 349 347 335 319 319 334 337 357 30 36 34 25 18 7 11 12 20 14
107 113 124 116 120 120 109 107 95 82 70 57 50 41 38 47 43 39 49 36 24 31 29 17 7 16 6 340 313 335 351 71 39 54 40 44 32 25 17 15 8 3 6
117 116 123 140 131 133 125 109 100 87 76 62 55 49 43 47 45 41 41 47 50 46 38 25 15 25 19 356 320 8 89 64 46 41 30 30 18 13 10 9 2 359 353
120 119 123 132 139 127 119 98 93 95 80 79 69 58 57 57 59 60 56 63 50 61 47 37 31 26 34 20 359 318 26 138 38 15 18 19 15 359 3 1 359 354 354
129 125 122 117 118 116 117 117 110 107 100 90 77 73 65 62 64 66 67 64 65 51 52 44 33 32 31 45 34 12 2 21 329 10 3 9 2 359 3 358 355 351 350
128 122 118 117 119 120 131 133 139 128 119 105 101 93 81 72 68 66 65 66 61 58 53 49 41 38 21 35 58 40 48 28 358 319 337 358 352 349 353 352 351 353 355
136 124 114 108 107 111 111 115 116 109 119 119 115 106 91 81 65 62 63 67 63 61 58 51 45 42 43 36 33 18 34 55 34 316 307 332 335 346 343 339 345 344 356
136 125 120 113 107 108 109 111 114 123 128 129 123 114 98 88 80 62 64 63 60 66 59 57 54 52 46 47 42 36 29 10 6 4 317 326 324 341 326 333 334 345 340